Vorticity
nan nan nan nan nan nan nan nan nan nan nan nan nan nan nan nan nan nan nan nan nan nan nan nan nan nan nan nan nan nan nan nan nan nan nan nan nan nan nan nan nan nan nan
nan 6 7 6 7 7 8 7 8 7 8 8 8 8 7 7 6 6 7 8 8 8 8 6 6 6 6 6 6 6 6 6 6 6 6 6 6 6 6 7 7 7 nan
nan 6 8 8 7 8 7 8 9 8 7 8 9 7 7 7 8 7 6 7 6 7 9 8 7 6 6 6 6 6 6 6 6 6 6 6 6 6 6 6 6 6 nan
nan 8 5 6 7 9 10 9 7 8 8 7 8 7 7 9 8 7 6 5 6 5 6 10 8 7 6 6 6 6 6 6 6 6 6 6 6 6 6 6 6 6 nan
nan 6 8 9 8 6 6 8 10 8 6 7 8 8 8 8 8 8 9 8 7 4 6 8 8 8 7 7 6 6 6 6 6 6 6 6 6 6 6 6 6 6 nan
nan 6 9 10 8 6 6 7 6 8 9 8 8 8 7 8 8 9 8 8 8 7 8 6 4 9 10 8 7 6 6 6 6 6 6 6 6 6 6 6 6 6 nan
nan 7 6 9 9 7 8 8 9 6 6 9 7 8 9 10 9 7 8 9 8 7 7 5 5 6 11 10 8 6 6 6 6 6 6 6 6 6 7 6 6 6 nan
nan 7 6 7 8 9 11 10 7 6 7 6 4 7 10 8 11 9 8 10 9 7 9 8 9 6 6 8 11 9 7 6 6 6 6 6 6 6 6 6 6 6 nan
nan 9 6 7 8 9 10 10 9 6 4 9 2 -3 4 11 13 11 8 9 8 6 9 9 8 8 7 8 6 9 10 9 7 5 5 6 6 6 6 6 6 6 nan
nan 10 8 7 5 9 8 8 7 5 7 6 5 4 2 9 8 11 13 10 8 8 8 7 10 9 6 8 7 5 9 12 9 7 6 6 6 6 6 6 6 6 nan
nan 17 16 12 7 8 9 8 7 7 6 6 11 8 4 6 8 13 15 10 7 10 10 8 8 9 8 6 8 9 8 10 11 8 7 7 7 6 6 6 6 6 nan
nan 15 18 15 13 12 12 10 12 10 3 5 10 11 9 7 8 8 14 17 9 9 9 9 7 8 8 9 14 9 5 7 11 9 8 7 7 6 6 6 6 6 nan
nan 9 11 15 16 15 12 11 13 13 10 10 8 7 11 11 6 9 16 14 10 8 8 12 9 9 9 8 14 10 6 6 11 10 7 7 7 7 6 6 6 6 nan
nan 9 10 10 10 11 15 15 12 12 12 11 10 7 6 5 6 9 12 10 8 10 9 9 8 11 9 10 13 7 7 9 9 9 7 6 6 6 6 7 6 5 nan
nan 8 10 10 10 11 13 11 12 13 11 11 11 6 4 6 7 6 10 7 3 10 11 8 9 12 9 12 12 7 10 11 7 7 7 7 6 5 7 8 5 4 nan
nan 6 9 10 10 12 12 11 11 14 11 9 12 10 6 7 8 9 11 7 4 8 13 12 11 12 9 12 11 7 12 10 6 6 7 7 7 6 7 6 5 5 nan
nan 7 8 10 10 11 14 13 12 13 13 12 12 14 11 8 7 8 9 9 11 13 12 11 15 14 11 9 8 8 9 6 10 11 10 8 9 7 6 5 6 8 nan
nan 8 10 9 10 11 11 12 13 14 14 13 12 12 11 11 12 8 10 10 9 13 15 8 10 12 11 9 10 10 5 9 13 15 11 8 7 6 6 7 8 7 nan
nan 10 12 11 10 10 10 12 12 12 15 15 13 12 12 9 7 10 10 7 8 10 9 8 11 12 12 12 8 9 10 9 13 12 6 7 6 6 7 7 7 6 nan
nan 12 12 13 11 11 11 10 12 11 12 14 16 14 12 9 8 7 7 7 6 8 10 9 10 11 11 11 9 10 9 10 9 8 5 6 7 5 8 6 6 7 nan
nan 11 13 13 11 11 12 12 12 11 10 11 14 16 15 16 14 10 11 12 9 8 8 8 8 9 12 14 10 8 10 10 8 6 7 8 7 7 8 6 11 10 nan
nan 10 11 11 11 11 13 11 8 11 10 8 8 12 17 16 13 13 14 13 10 10 8 7 12 12 10 8 10 10 9 8 8 11 7 7 9 9 8 13 11 6 nan
nan 11 12 12 11 15 17 12 8 8 11 9 8 8 10 12 12 10 9 9 14 12 9 11 12 10 11 10 10 11 9 7 10 14 9 8 10 9 11 12 8 3 nan
nan 11 12 12 14 18 17 14 9 5 11 13 12 9 9 10 11 12 8 8 10 11 13 17 16 15 17 15 8 8 11 7 8 10 12 10 9 10 9 11 9 7 nan
nan 11 11 13 14 17 16 12 8 8 11 10 10 11 11 14 16 8 6 8 8 11 15 13 12 16 16 18 14 10 10 8 6 8 10 10 10 11 8 11 10 11 nan
nan nan nan nan nan nan nan nan nan nan nan nan nan nan nan nan nan nan nan nan nan nan nan nan nan nan nan nan nan nan nan nan nan nan nan nan nan nan nan nan nan nan nan
CAPE
1326 783 812 855 635 119 0 0 0 0 0 0 0 0 0 0 0 0 11 25 20 16 15 16 14 11 13 9 8 8 8 9 7 7 7 6 5 5 5 5 5 3 2
1089 982 643 731 568 143 0 0 0 0 0 0 0 0 0 0 0 0 8 16 23 26 19 13 14 12 11 8 7 8 7 5 6 6 7 7 7 7 4 4 5 4 5
1104 990 493 551 479 131 0 0 0 0 0 0 0 0 0 0 0 0 3 19 10 21 30 16 13 11 11 8 8 8 7 7 8 8 8 6 6 5 4 4 5 6 6
1183 821 416 426 242 14 0 0 0 0 0 0 0 0 0 0 0 0 0 9 9 15 16 23 13 11 10 11 11 11 12 9 8 8 8 6 6 6 4 3 5 6 6
796 893 705 594 325 1 0 0 0 0 0 0 0 0 0 0 0 0 0 5 22 14 11 19 21 22 18 12 16 16 16 12 11 8 8 6 6 4 3 3 4 5 5
326 653 971 732 198 0 0 0 0 0 0 0 0 0 0 0 0 0 1 3 13 12 11 15 17 13 29 14 18 19 16 16 12 10 8 6 5 5 5 5 5 5 4
180 214 487 622 293 8 0 0 0 0 0 0 0 0 0 0 0 0 1 3 10 14 9 9 4 9 21 23 18 17 18 15 12 11 8 8 7 5 5 5 5 5 4
284 147 207 334 223 171 1 0 0 0 0 0 0 0 0 0 0 0 0 2 11 5 3 3 0 5 8 10 24 17 17 14 14 11 8 5 5 5 5 5 5 4 5
291 161 65 53 63 3 0 0 0 0 0 0 0 0 0 0 0 0 0 0 2 0 0 0 0 0 3 3 9 13 17 12 10 9 6 4 3 3 4 4 4 4 4
486 102 87 38 51 0 0 0 0 0 0 0 0 0 0 0 0 0 0 0 1 1 0 0 0 0 0 1 4 4 0 9 8 8 4 3 3 4 5 4 4 4 3
111 226 47 5 7 0 0 0 0 0 0 0 0 0 0 0 0 0 0 0 1 4 2 0 0 0 0 0 0 0 0 0 8 5 5 3 4 3 3 3 2 2 1
10 28 84 23 1 0 0 0 0 0 0 0 0 0 0 0 0 0 0 0 0 0 2 3 0 0 0 0 0 0 0 0 4 5 3 2 3 4 2 1 2 1 1
15 17 27 27 2 0 0 3 0 0 3 2 0 1 4 0 0 0 0 0 0 0 2 14 5 0 0 0 0 0 0 0 0 1 0 0 0 0 0 0 0 0 0
15 18 41 44 13 0 2 1 0 0 1 1 0 0 0 0 0 0 0 0 0 3 5 0 6 6 0 0 0 0 0 0 0 0 0 0 0 0 0 0 0 0 0
17 13 9 12 14 15 5 0 0 0 0 0 0 0 0 0 0 0 0 0 0 2 8 12 6 3 0 0 0 0 0 0 0 0 0 0 0 0 0 0 0 0 0
125 58 5 8 5 8 11 4 1 0 0 0 0 1 0 0 0 0 0 0 0 0 0 0 0 0 0 0 0 0 0 0 0 0 0 0 0 0 0 0 0 0 0
386 251 94 5 8 4 5 6 1 0 0 0 0 0 0 0 0 0 0 0 0 0 0 0 2 1 5 1 0 10 0 0 0 0 0 0 0 0 0 0 0 0 0
583 523 274 18 4 1 1 2 0 0 0 0 0 0 0 0 0 0 0 0 16 0 0 0 0 4 9 2 0 13 0 0 0 0 0 0 0 0 0 0 0 0 0
807 713 367 38 2 1 1 1 0 0 0 0 0 0 0 1 0 0 3 14 5 2 0 1 4 3 5 2 13 7 1 0 1 0 0 0 0 0 0 0 0 0 0
771 649 316 57 3 1 1 1 2 1 0 0 0 0 0 0 0 3 3 2 0 0 1 1 2 2 4 10 14 9 7 6 0 0 0 0 0 0 0 0 0 0 0
672 496 241 15 3 2 1 0 0 1 0 0 0 0 0 0 0 3 0 0 0 0 0 0 0 0 3 2 4 8 6 5 2 0 0 0 0 0 0 0 0 0 0
506 470 228 64 4 1 0 0 0 0 0 0 0 0 0 0 0 0 0 0 0 0 0 0 1 2 4 2 5 7 10 11 8 1 1 0 0 0 0 0 0 0 0
491 526 265 71 13 2 0 0 0 0 0 0 0 0 0 0 0 0 0 0 0 0 0 0 0 1 8 11 11 11 8 5 6 0 0 0 0 0 0 0 0 0 0
466 493 359 87 8 2 0 0 0 0 0 0 0 0 0 0 0 0 0 0 0 0 0 1 3 9 9 14 16 6 11 9 4 0 0 3 3 0 0 0 0 0 0
379 367 210 8 8 1 0 0 0 0 0 0 0 0 0 0 2 8 1 3 4 3 3 1 0 0 0 0 3 12 17 3 9 5 0 0 3 0 0 0 0 0 0
3 3 4 12 1 0 0 0 0 0 0 0 0 0 0 0 0 0 3 4 5 6 6 6 4 0 0 0 0 2 12 5 13 10 4 0 0 0 0 0 0 0 0